Weather reports worldwide

Advertisment
Mte.Calamita, Italy (16197): temperature & dewpoint: 16.07.2019 21:00:00 - 22.07.2019 21:00:00 (CEST)Mte.Calamita, Italy (16197): wind speed: 16.07.2019 21:00:00 - 22.07.2019 21:00:00 (CEST)Mte.Calamita, Italy (16197): wind direction: 16.07.2019 21:00:00 - 22.07.2019 21:00:00 (CEST)Mte.Calamita, Italy (16197): reduced air pressure: 16.07.2019 21:00:00 - 22.07.2019 21:00:00 (CEST)Mte.Calamita, Italy (16197): visibility: 16.07.2019 21:00:00 - 22.07.2019 21:00:00 (CEST)Mte.Calamita, Italy (16197): sunshine duration: 16.07.2019 21:00:00 - 22.07.2019 21:00:00 (CEST)
Date & Time tt [°C] td [°C] ff [km/h] ff [kn] dd ppp [hPa] vv [km] sd [min]
22.07.2019 21:00:00 - - - - - - - -
22.07.2019 20:00:00 26,6 17,4 13 7 N 1018,1 30 30
22.07.2019 19:00:00 27,0 17,0 13 7 NNW - 10 -
22.07.2019 18:00:00 29,0 15,0 11 6 N - 10 -
22.07.2019 17:00:00 28,8 10,9 11 6 N 1018,7 30 60
22.07.2019 16:00:00 30,0 16,0 11 6 N - 10 -
22.07.2019 15:00:00 30,0 15,0 0 0 N - 10 -
22.07.2019 14:00:00 28,8 18,0 0 0 N 1019,7 30 60
22.07.2019 13:00:00 28,0 21,0 0 0 N - 10 -
22.07.2019 12:00:00 27,0 22,0 0 0 N - 10 -
22.07.2019 11:00:00 26,2 19,8 5 3 N 1020,0 30 60
22.07.2019 10:00:00 25,0 18,0 0 0 N - 10 -
22.07.2019 09:00:00 23,0 17,0 0 0 N - 10 -
22.07.2019 08:00:00 22,4 16,0 0 0 N 1019,8 30 60
22.07.2019 07:00:00 22,0 16,0 0 0 N - 10 -
22.07.2019 06:00:00 - - - - - - - -
22.07.2019 05:00:00 - - - - - - - -
22.07.2019 04:00:00 - - - - - - - -
22.07.2019 03:00:00 - - - - - - - -
22.07.2019 02:00:00 - - - - - - - -
22.07.2019 01:00:00 - - - - - - - -
22.07.2019 00:00:00 - - - - - - - -
21.07.2019 23:00:00 - - - - - - - -
21.07.2019 22:00:00 - - - - - - - -
21.07.2019 21:00:00 - - - - - - - -
21.07.2019 20:00:00 26,0 18,4 0 0 N 1018,6 30 30
21.07.2019 19:00:00 27,0 17,0 9 5 W - 10 -
21.07.2019 18:00:00 28,0 13,0 9 5 W - 10 -
21.07.2019 17:00:00 27,4 15,1 9 5 W 1018,8 30 60
21.07.2019 16:00:00 27,0 17,0 8 4 W - 10 -
21.07.2019 15:00:00 27,0 20,0 5 3 SSW - 10 -
21.07.2019 14:00:00 26,0 21,7 8 4 WSW 1019,0 30 60
21.07.2019 13:00:00 26,0 21,0 8 4 WSW - 10 -
21.07.2019 12:00:00 24,0 20,0 8 4 WSW - 10 -
21.07.2019 11:00:00 23,4 20,3 5 3 SSW 1019,2 30 60
21.07.2019 10:00:00 21,0 17,0 5 3 SSW - 10 -
21.07.2019 09:00:00 21,0 19,0 5 3 SSW - 10 -
21.07.2019 08:00:00 20,6 19,4 0 0 N 1019,2 30 30
21.07.2019 07:00:00 20,0 19,0 0 0 N - 10 -
21.07.2019 06:00:00 - - - - - - - -
21.07.2019 05:00:00 - - - - - - - -
21.07.2019 04:00:00 - - - - - - - -
21.07.2019 03:00:00 - - - - - - - -
21.07.2019 02:00:00 - - - - - - - -
21.07.2019 01:00:00 - - - - - - - -
21.07.2019 00:00:00 - - - - - - - -
20.07.2019 23:00:00 - - - - - - - -
20.07.2019 22:00:00 - - - - - - - -
20.07.2019 21:00:00 - - - - - - - -
20.07.2019 20:00:00 25,8 16,7 8 4 W 1016,8 30 60
20.07.2019 19:00:00 27,0 17,0 9 5 SSW - 10 -
20.07.2019 18:00:00 27,0 18,0 9 5 SSW - 10 -
20.07.2019 17:00:00 27,2 18,8 11 6 SSW 1016,7 30 60
20.07.2019 16:00:00 27,0 18,0 11 6 SSW - 10 -
20.07.2019 15:00:00 26,0 17,0 13 7 SSW - 10 -
20.07.2019 14:00:00 25,2 20,0 9 5 SSW 1017,0 30 60
20.07.2019 13:00:00 25,0 20,0 13 7 SSW - 10 -
20.07.2019 12:00:00 24,0 21,0 13 7 SSW - 10 -
20.07.2019 11:00:00 23,8 20,5 15 8 ESE 1016,8 30 60
20.07.2019 10:00:00 22,0 20,0 15 8 ESE - 10 -
20.07.2019 09:00:00 21,0 19,0 11 6 N - 10 -
20.07.2019 08:00:00 20,6 19,1 0 0 N 1016,2 30 30
20.07.2019 07:00:00 20,0 19,0 0 0 N - 10 -
20.07.2019 06:00:00 - - - - - - - -
20.07.2019 05:00:00 - - - - - - - -
20.07.2019 04:00:00 - - - - - - - -
20.07.2019 03:00:00 - - - - - - - -
20.07.2019 02:00:00 - - - - - - - -
20.07.2019 01:00:00 - - - - - - - -
20.07.2019 00:00:00 - - - - - - - -
19.07.2019 23:00:00 - - - - - - - -
19.07.2019 22:00:00 - - - - - - - -
19.07.2019 21:00:00 - - - - - - - -
19.07.2019 20:00:00 25,2 20,0 0 0 N 1013,8 30 60
19.07.2019 19:00:00 26,0 20,0 0 0 N - 10 -
19.07.2019 18:00:00 27,0 18,0 0 0 N - 10 -
19.07.2019 17:00:00 26,8 16,4 0 0 N 1013,6 30 60
19.07.2019 16:00:00 26,0 17,0 0 0 N - 10 -
19.07.2019 15:00:00 27,0 16,0 0 0 N - 10 -
19.07.2019 14:00:00 26,4 16,1 0 0 N 1014,1 30 60
19.07.2019 13:00:00 25,0 16,0 0 0 N - 10 -
19.07.2019 12:00:00 24,0 20,0 0 0 N - 10 -
19.07.2019 11:00:00 23,8 19,7 0 0 N 1014,3 30 60
19.07.2019 10:00:00 22,0 20,0 0 0 N - 10 -
19.07.2019 09:00:00 21,0 20,0 0 0 N - 10 -
19.07.2019 08:00:00 19,8 19,3 0 0 N 1013,7 30 60
19.07.2019 07:00:00 20,0 19,0 0 0 N - 10 -
19.07.2019 06:00:00 - - - - - - - -
19.07.2019 05:00:00 - - - - - - - -
19.07.2019 04:00:00 - - - - - - - -
19.07.2019 03:00:00 - - - - - - - -
19.07.2019 02:00:00 - - - - - - - -
19.07.2019 01:00:00 - - - - - - - -
19.07.2019 00:00:00 - - - - - - - -
18.07.2019 23:00:00 - - - - - - - -
18.07.2019 22:00:00 - - - - - - - -
18.07.2019 21:00:00 - - - - - - - -
18.07.2019 20:00:00 25,0 15,9 0 0 N 1010,3 30 60
18.07.2019 19:00:00 26,0 14,0 0 0 N - 10 -
18.07.2019 18:00:00 26,0 17,0 0 0 N - 10 -
18.07.2019 17:00:00 26,4 15,8 0 0 N 1010,2 30 60
18.07.2019 16:00:00 27,0 14,0 0 0 N - 10 -
18.07.2019 15:00:00 26,0 14,0 0 0 N - 10 -
18.07.2019 14:00:00 26,0 14,2 0 0 N 1010,4 30 60
18.07.2019 13:00:00 25,0 16,0 0 0 N - 10 -
18.07.2019 12:00:00 24,0 17,0 0 0 N - 10 -
18.07.2019 11:00:00 22,6 16,4 0 0 N 1010,7 30 60
18.07.2019 10:00:00 22,0 17,0 0 0 N - 10 -
18.07.2019 09:00:00 20,0 16,0 0 0 N - 10 -
18.07.2019 08:00:00 19,6 16,6 0 0 N 1010,6 30 30
18.07.2019 07:00:00 19,0 15,0 0 0 N - 10 -
18.07.2019 06:00:00 - - - - - - - -
18.07.2019 05:00:00 - - - - - - - -
18.07.2019 04:00:00 - - - - - - - -
18.07.2019 03:00:00 - - - - - - - -
18.07.2019 02:00:00 - - - - - - - -
18.07.2019 01:00:00 - - - - - - - -
18.07.2019 00:00:00 - - - - - - - -
17.07.2019 23:00:00 - - - - - - - -
17.07.2019 22:00:00 - - - - - - - -
17.07.2019 21:00:00 - - - - - - - -
17.07.2019 20:00:00 24,0 19,5 4 2 N 1010,4 20 60
17.07.2019 19:00:00 25,0 20,0 5 3 NNE - 10 -
17.07.2019 18:00:00 26,0 21,0 5 3 N - 10 -
17.07.2019 17:00:00 27,0 17,8 13 7 NW 1010,5 30 60
17.07.2019 16:00:00 27,0 17,0 13 7 NW - 10 -
17.07.2019 15:00:00 26,0 18,0 5 3 W - 10 -
17.07.2019 14:00:00 25,2 16,1 11 6 W 1011,6 30 60
17.07.2019 13:00:00 26,0 9,0 4 2 NNE - 10 -
17.07.2019 12:00:00 25,0 9,0 9 5 NNE - 10 -
17.07.2019 11:00:00 23,8 9,4 0 0 N 1011,9 30 60
17.07.2019 10:00:00 21,0 13,0 5 3 NNE - 10 -
17.07.2019 09:00:00 19,0 17,0 0 0 N - 10 -
17.07.2019 08:00:00 18,8 17,8 9 5 N 1012,6 30 42
17.07.2019 07:00:00 19,0 18,0 11 6 N - 10 -
17.07.2019 06:00:00 - - - - - - - -
17.07.2019 05:00:00 - - - - - - - -
17.07.2019 04:00:00 - - - - - - - -
17.07.2019 03:00:00 - - - - - - - -
17.07.2019 02:00:00 - - - - - - - -
17.07.2019 01:00:00 - - - - - - - -
17.07.2019 00:00:00 - - - - - - - -
16.07.2019 23:00:00 - - - - - - - -
16.07.2019 22:00:00 - - - - - - - -
16.07.2019 21:00:00 - - - - - - - -

tt = temperature
td = dewpoint
ff = wind speed
dd = wind direction
ppp = reduced air pressure
vv = visibility
sd = sunshine duration

Next stations